Home   Weather   Schaffhausen   Past weeks
Flag for Switzerland

Past Weather in Schaffhausen, Schaffhausen, Switzerland — Yesterday and Last 2 Weeks

Now
53 °F

Cool.


Feels Like: 51 °F
Forecast: 60 / 40 °F
Wind: 7 mph from Southwest

Location: Zurich-Kloten

Current Time: Oct 15, 2019 at 6:57:33 pm

Latest Report: Oct 15, 2019 at 6:00 pm


Visibility: N/A

Pressure: 29.84 "Hg

Humidity: 95%

Dew Point: 52 °F

Location of SchaffhausenLocation

Past Weather in Schaffhausen — Graph

°F

Schaffhausen Temperature Yesterday

Maximum temperature yesterday: 71 °F (at 4:00 pm)
Minimum temperature yesterday: 46 °F (at 6:00 am)
Average temperature yesterday: 56 °F

High & Low Weather Summary for the Past Weeks

 TemperatureHumidityPressure
High72 °F (Oct 1, 5:00 pm)100% (Oct 3, 3:00 am)30.26 "Hg (Oct 3, 3:00 am)
Low38 °F (Oct 11, 5:00 am)46% (Oct 1, 5:00 pm)29.68 "Hg (Oct 1, 5:00 pm)
Average54 °F84%30.00 "Hg
* Reported Sep 30 5:00 pm — Oct 15 5:00 pm, Schaffhausen. Weather by CustomWeather, © 2019

Note: Actual official high and low records may vary slightly from our data, if they occured in-between our weather recording intervals... More about our weather records

Advertising

Schaffhausen Weather History for the Previous 24 Hours

Scroll right to see more
 ConditionsComfort  
Time TempWeatherWind HumidityBarometerVisibility
5:00 pm
Tue, Oct 15
55 °FRain. Overcast.3 mph90%29.82 "Hg4 mi
4:00 pm59 °FCool.9 mph71%29.79 "HgN/A
3:00 pm60 °FCool.12 mph71%29.78 "HgN/A
2:00 pm62 °FOvercast.13 mph64%29.77 "Hg12 mi
1:00 pm62 °FCool.7 mph70%29.79 "HgN/A
12:00 pm58 °FCool.7 mph81%29.79 "HgN/A
11:00 am57 °FOvercast.6 mph87%29.78 "Hg9 mi
10:00 am55 °FCool.7 mph92%29.76 "HgN/A
9:00 am50 °FCool.2 mph100%29.75 "HgN/A
8:00 am49 °FFog.3 mph100%29.77 "Hg0 mi
7:00 am49 °FCool.2 mph100%29.78 "HgN/A
6:00 am49 °FCool.3 mph100%29.80 "HgN/A
5:00 am47 °FFog.3 mph100%29.83 "Hg0 mi
4:00 am50 °FCool.7 mph100%29.85 "HgN/A
3:00 am48 °FCool.3 mph100%29.88 "HgN/A
2:00 am47 °FFog.2 mph100%29.90 "Hg5 mi
1:00 am51 °FCool.2 mph100%29.91 "HgN/A
12:00 am51 °FCool.2 mph100%29.92 "HgN/A
11:00 pm
Mon, Oct 14
54 °FFog.2 mph98%29.91 "Hg5 mi
10:00 pm54 °FCool.3 mph99%29.91 "HgN/A
9:00 pm55 °FCool.3 mph95%29.89 "HgN/A
8:00 pm60 °FPassing clouds.1 mph87%29.88 "Hg11 mi
7:00 pm65 °FMild.1 mph77%29.88 "HgN/A
6:00 pm69 °FMild.3 mph66%29.87 "HgN/A
Weather by CustomWeather, © 2019

See weather overview